This demonstration page uses our WeatherBlox Daily Observations layout. Learn more.

Left ArrowRight Arrow

38.89511, -77.03637

Hourly Observations for September 26, 2021

Temp ( °F °C ) Dew Point ( °F °C ) Humidity (%) Winds ( mph kmh ) Pressure ( in mb ) Visibility ( mi km ) Precip ( " mm )
12:52 am 00:52 Partly Cloudy 67 19.4 53 11.7 61 61 NW 13 20 29.98 1015 10 16 N/A
1:52 am 01:52 Mostly Clear 66 18.9 53 11.7 63 63 NW 13 20 29.97 1015 10 16 N/A
2:52 am 02:52 Mostly Cloudy 65 18.3 52 11.1 63 63 NW 10 17 29.98 1015 10 16 N/A
3:52 am 03:52 Mostly Cloudy 64 17.8 52 11.1 65 65 NW 10 17 29.98 1015 10 16 N/A
4:52 am 04:52 Partly Cloudy 63 17.2 51 10.6 65 65 NW 10 17 29.98 1015 10 16 N/A
5:52 am 05:52 Mostly Clear 61 16.1 51 10.6 70 70 NW 7 11 29.99 1016 10 16 N/A
6:52 am 06:52 Mostly Clear 60 15.6 51 10.6 72 72 N N/A 30.02 1017 10 16 N/A
7:52 am 07:52 Mostly Sunny 62 16.7 51 10.6 67 67 VRB 3 6 30.04 1017 10 16 N/A
8:52 am 08:52 Sunny 65 18.3 51 10.6 61 61 W 6 9 30.05 1018 10 16 N/A
9:52 am 09:52 Sunny 68 20 49 9.4 51 51 undefined N/A 30.06 1018 10 16 N/A
9:54 am 09:54 Sunny 68 20 49 9.4 51 51 W 10 17 30.06 1018 10 16 N/A
10:52 am 10:52 Mostly Sunny 71 21.7 47 8.3 42 42 NNW 14 22 30.07 1018 10 16 N/A
11:52 am 11:52 Mostly Sunny 72 22.2 46 7.8 40 40 NW 10 17 30.06 1018 10 16 N/A
12:52 pm 12:52 Sunny 74 23.3 46 7.8 37 37 NW 12 19 30.04 1017 10 16 N/A
1:52 pm 13:52 Mostly Sunny 77 25 45 7.2 32 32 W 10 17 30.02 1017 10 16 N/A
2:52 pm 14:52 Mostly Sunny 76 24.4 42 5.6 30 30 WNW 15 24 30.01 1016 10 16 N/A
3:52 pm 15:52 Partly Cloudy 76 24.4 43 6.1 31 31 WNW 18 30 29.99 1016 10 16 N/A
4:52 pm 16:52 Mostly Sunny 76 24.4 42 5.6 30 30 WNW 16 26 29.98 1015 10 16 N/A
5:52 pm 17:52 Partly Cloudy 75 23.9 41 5 29 29 WNW 10 17 29.99 1016 10 16 N/A
6:52 pm 18:52 Mostly Sunny 72 22.2 41 5 33 33 W 6 9 30.01 1016 10 16 N/A
7:52 pm 19:52 Mostly Clear 69 20.6 44 6.7 41 41 SW 6 9 30.02 1017 10 16 N/A
8:52 pm 20:52 Mostly Clear 68 20 46 7.8 45 45 SW 6 9 30.04 1017 10 16 N/A
9:52 pm 21:52 Mostly Clear 65 18.3 48 8.9 54 54 SW 6 9 30.04 1017 10 16 N/A
10:52 pm 22:52 Clear 64 17.8 49 9.4 58 58 SSW 5 7 30.05 1018 10 16 N/A
11:52 pm 23:52 Clear 63 17.2 50 10 63 63 SSW 5 7 30.05 1018 10 16 N/A

Powered by AerisWeather